Showing default

POLAR BEAR, 17070

Orbit data source: Space-Track

POLAR BEAR, 17070 is an American payload satellite in LEO that was launched on Fri, 14 Nov 1986 UTC via an SCOUT G-1 launch vehicle from the Air Force Western Test Range (AFWTR). Payload-class satellites include a variety of spacecraft equipped with specific instruments for various scientific and technological missions. These include communications satellites like Starlink; space stations such as the ISS; scientific satellites like the Hubble; Earth observation satellites from companies like Planet Labs, Umbra, and HawkEye 360; GPS; miniature CubeSats for education and research; and military/defense satellites.

Loading next visibility...
Identifier
17070, 1986-088A
Orbit
LEO
Country
Flag of USUS
Related business
Manufacturer
APL
Mission
Civil Science
Bus & Motor
TRANSIT 5, Unknown motor
Mass
114 kg wet, 114 kg dry
Launch date (UTC)
1986-11-14 (40 years ago)
Launch vehicle
SCOUT G-1
Launch site
Air Force Western Test Range (AFWTR)
Object type
Payload
Rocket body
Debris
Shape & HBR
Oct Cyl + 4 Pan + 1 Ant, 15.0 m
Radar Cross Section
0.163 m², Large (>1 m²)

Expand to show TLE details & history
Last TLE update: 10 hours ago

TLE from 10 hours ago
0 POLAR BEAR
1 17070U 86088A   26235.82062394  .00000083  00000-0  73704-4 0  9993
2 17070  89.6246 173.6999 0041506  74.5901 316.0497 13.75297863994719
Epoch: 2026-08-23T19:41Z
TLE epoch observation values (Epoch: 2026-08-23T19:41:41.908Z)
Latitude
30.35757°
Longitude
-93.61718°
Altitude
962.581 km
Speed
7.384 km/s
True Right ascension
11h 35m 40s
True Declination
30° 12' 43"
Sunlit
Object was in daylight at epoch
Visualization orbit readout
Latitude
Unknown
Longitude
Unknown
Altitude
Unknown
Speed
Unknown
Apparent Right ascension
Unknown
Apparent Declination
Unknown
Sunlit
N/A
Visualization observer readout
Local Sidereal Time
20:53:46
Azimuth
Unknown
Elevation
Unknown
Doppler factor
Unknown
Orbital elements
Apogee altitude
1,008.156 km
Perigee altitude
947.095 km
Semi-major axis
7,355.762 km
Eccentricity
0.00415
Inclination
89.6246°
RAAN
173.6999°
Arg. of periapsis
74.5901°
True anomaly
315.71837°
Mean anomaly
316.0497°
Eccentric anomaly
315.88416°
Mean motion
3.44034 °/min
Orbital period
104.64 mins
BSTAR
0.000073704
Loading maneuver chart data...
Computing Atmospheric mass density...
Loading historical data...
Loading historical data...
Loading historical data...
Loading historical data...
Loading historical data...
Loading historical data...
Loading historical data...
Other satellites on launch #88 in the year 1986 (1986-11-14 UTC)

Documentation

Showing up to 5 results
|